• In United Kingdom
  • List of Countries
  • For 7 days
  • Water Temperature
  • Satellite Maps
  • Weather Map
  • Weather Widgets
  • user-avatar
    Login

    Hourly Weather Córdoba

    Today, 22 September, Saturday

    Time Temperature Precipitation Wind Pressure Humidity
    00:00 +23°C° 0 mm 4 mps 718 mmHg 70%
    01:00 +23°C° 0 mm 4 mps 718 mmHg 72%
    02:00 +23°C° 0 mm 4 mps 717 mmHg 73%
    03:00 +23°C° 0 mm 4 mps 717 mmHg 74%
    04:00 +23°C° 0 mm 4 mps 717 mmHg 75%
    05:00 +23°C° 0 mm 5 mps 716 mmHg 76%
    06:00 +26°C° 0 mm 5 mps 717 mmHg 71%
    07:00 +27°C° 0 mm 6 mps 717 mmHg 65%
    08:00 +28°C° 0 mm 7 mps 717 mmHg 60%
    09:00 +32°C° 0 mm 7 mps 717 mmHg 52%
    10:00 +34°C° 0 mm 7 mps 717 mmHg 44%
    11:00 +36°C° 0 mm 7 mps 717 mmHg 36%
    12:00 +39°C° 0 mm 7 mps 716 mmHg 32%
    13:00 +40°C° 0 mm 7 mps 716 mmHg 28%
    14:00 +41°C° 0 mm 6 mps 715 mmHg 23%
    15:00 +40°C° 0 mm 5 mps 715 mmHg 23%
    16:00 +40°C° 0 mm 4 mps 715 mmHg 23%
    17:00 +38°C° 0 mm 4 mps 714 mmHg 23%
    18:00 +36°C° 0 mm 3 mps 715 mmHg 28%
    19:00 +33°C° 0 mm 3 mps 715 mmHg 33%
    20:00 +30°C° 0 mm 3 mps 716 mmHg 38%
    21:00 +28°C° 0 mm 4 mps 716 mmHg 51%
    22:00 +26°C° 0 mm 5 mps 717 mmHg 65%
    23:00 +23°C° 0 mm 6 mps 717 mmHg 78%

    Tomorrow, 23 September, Sunday

    Time Temperature Precipitation Wind Pressure Humidity
    00:00 +22°C° 0 mm 6 mps 717 mmHg 78%
    01:00 +22°C° 0 mm 5 mps 717 mmHg 78%
    02:00 +21°C° 0 mm 5 mps 717 mmHg 77%
    03:00 +20°C° 0 mm 5 mps 717 mmHg 76%
    04:00 +20°C° 0 mm 5 mps 717 mmHg 74%
    05:00 +19°C° 0 mm 4 mps 717 mmHg 73%
    06:00 +19°C° 0 mm 4 mps 718 mmHg 70%
    07:00 +20°C° 0 mm 4 mps 718 mmHg 67%
    08:00 +20°C° 0 mm 4 mps 718 mmHg 63%
    09:00 +22°C° 0 mm 4 mps 719 mmHg 58%
    10:00 +25°C° 0 mm 4 mps 719 mmHg 53%
    11:00 +27°C° 0 mm 4 mps 720 mmHg 48%
    12:00 +28°C° 0 mm 5 mps 720 mmHg 47%
    13:00 +29°C° 0 mm 5 mps 719 mmHg 45%
    14:00 +30°C° 0 mm 5 mps 719 mmHg 44%
    15:00 +29°C° 0 mm 5 mps 719 mmHg 48%
    16:00 +28°C° 0 mm 6 mps 719 mmHg 52%
    17:00 +27°C° 0 mm 6 mps 719 mmHg 56%
    18:00 +24°C° 0 mm 6 mps 720 mmHg 58%
    19:00 +23°C° 0 mm 6 mps 721 mmHg 60%
    20:00 +22°C° 0 mm 5 mps 722 mmHg 62%
    21:00 +21°C° 0 mm 5 mps 723 mmHg 62%
    22:00 +20°C° 0 mm 5 mps 723 mmHg 62%
    23:00 +19°C° 0 mm 5 mps 724 mmHg 62%

    Day after tomorrow, 24 September, Monday

    Time Temperature Precipitation Wind Pressure Humidity
    00:00 +18°C° 0 mm 4 mps 724 mmHg 60%
    01:00 +17°C° 0 mm 4 mps 724 mmHg 59%
    02:00 +15°C° 0 mm 4 mps 723 mmHg 58%
    03:00 +14°C° 0 mm 4 mps 724 mmHg 58%
    04:00 +13°C° 0 mm 4 mps 724 mmHg 58%
    05:00 +13°C° 0 mm 3 mps 724 mmHg 58%
    06:00 +14°C° 0 mm 3 mps 725 mmHg 54%
    07:00 +16°C° 0 mm 3 mps 725 mmHg 50%
    08:00 +16°C° 0 mm 3 mps 725 mmHg 45%
    09:00 +18°C° 0 mm 3 mps 726 mmHg 42%
    10:00 +20°C° 0 mm 3 mps 726 mmHg 39%
    11:00 +21°C° 0 mm 4 mps 726 mmHg 36%
    12:00 +22°C° 0 mm 4 mps 725 mmHg 35%
    13:00 +23°C° 0 mm 4 mps 725 mmHg 33%
    14:00 +25°C° 0 mm 4 mps 724 mmHg 32%
    15:00 +25°C° 0 mm 4 mps 724 mmHg 32%
    16:00 +25°C° 0 mm 4 mps 723 mmHg 32%
    17:00 +23°C° 0 mm 4 mps 723 mmHg 33%
    18:00 +22°C° 0 mm 3 mps 723 mmHg 37%
    19:00 +20°C° 0 mm 3 mps 723 mmHg 41%
    20:00 +18°C° 0 mm 2 mps 724 mmHg 46%
    21:00 +18°C° 0 mm 2 mps 724 mmHg 49%
    22:00 +17°C° 0 mm 2 mps 724 mmHg 51%
    23:00 +16°C° 0 mm 1 mps 724 mmHg 54%

    25 September, Tuesday

    Time Temperature Precipitation Wind Pressure Humidity
    00:00 +16°C° 0 mm 1 mps 724 mmHg 55%
    01:00 +15°C° 0 mm 1 mps 724 mmHg 57%
    02:00 +15°C° 0 mm 1 mps 723 mmHg 59%
    03:00 +15°C° 0 mm 1 mps 723 mmHg 60%
    04:00 +14°C° 0 mm 1 mps 723 mmHg 61%
    05:00 +14°C° 0 mm 1 mps 723 mmHg 63%
    06:00 +15°C° 0 mm 2 mps 723 mmHg 60%
    07:00 +16°C° 0 mm 2 mps 723 mmHg 58%
    08:00 +17°C° 0 mm 2 mps 724 mmHg 56%
    09:00 +19°C° 0 mm 2 mps 724 mmHg 54%
    10:00 +20°C° 0 mm 2 mps 724 mmHg 51%
    11:00 +23°C° 0 mm 2 mps 723 mmHg 49%
    12:00 +24°C° 0 mm 3 mps 723 mmHg 48%
    13:00 +25°C° 0 mm 3 mps 722 mmHg 47%
    14:00 +26°C° 0 mm 3 mps 721 mmHg 46%
    15:00 +25°C° 0 mm 3 mps 721 mmHg 50%
    16:00 +25°C° 0 mm 4 mps 721 mmHg 55%
    17:00 +23°C° 0 mm 4 mps 720 mmHg 59%
    18:00 +21°C° 0 mm 3 mps 720 mmHg 67%
    19:00 +20°C° 0 mm 3 mps 721 mmHg 76%
    20:00 +18°C° 0 mm 2 mps 721 mmHg 85%
    21:00 +18°C° 0 mm 2 mps 721 mmHg 85%
    22:00 +18°C° 0 mm 1 mps 721 mmHg 86%
    23:00 +18°C° 0 mm 1 mps 721 mmHg 87%

    26 September, Wednesday

    Time Temperature Precipitation Wind Pressure Humidity
    00:00 +18°C° 0 mm 1 mps 721 mmHg 88%
    01:00 +16°C° 0 mm 1 mps 721 mmHg 89%
    02:00 +16°C° 0 mm 1 mps 720 mmHg 90%
    03:00 +16°C° 0 mm 1 mps 720 mmHg 90%
    04:00 +16°C° 0 mm 1 mps 720 mmHg 90%
    05:00 +16°C° 0 mm 1 mps 720 mmHg 91%
    06:00 +18°C° 0 mm 1 mps 720 mmHg 86%
    07:00 +19°C° 0 mm 1 mps 721 mmHg 82%
    08:00 +20°C° 0 mm 1 mps 721 mmHg 77%
    09:00 +20°C° 0 mm 2 mps 721 mmHg 72%
    10:00 +21°C° 0 mm 2 mps 721 mmHg 67%
    11:00 +24°C° 0 mm 2 mps 721 mmHg 61%
    12:00 +25°C° 0 mm 3 mps 721 mmHg 58%
    13:00 +26°C° 0 mm 3 mps 720 mmHg 55%
    14:00 +27°C° 0 mm 3 mps 720 mmHg 52%
    15:00 +26°C° 0 mm 4 mps 720 mmHg 55%
    16:00 +26°C° 0 mm 4 mps 719 mmHg 57%
    17:00 +25°C° 0 mm 4 mps 719 mmHg 60%
    18:00 +23°C° 0.1 mm 4 mps 720 mmHg 66%
    19:00 +22°C° 0.1 mm 4 mps 721 mmHg 73%
    20:00 +21°C° 0.1 mm 4 mps 721 mmHg 79%
    21:00 +20°C° 0.2 mm 3 mps 721 mmHg 82%
    22:00 +20°C° 0.2 mm 3 mps 722 mmHg 84%
    23:00 +19°C° 0.2 mm 3 mps 722 mmHg 87%

    27 September, Thursday

    Time Temperature Precipitation Wind Pressure Humidity
    00:00 +19°C° 0.1 mm 3 mps 722 mmHg 88%
    01:00 +19°C° 0.1 mm 2 mps 722 mmHg 89%
    02:00 +18°C° 0.1 mm 2 mps 721 mmHg 90%
    03:00 +18°C° 0.1 mm 2 mps 721 mmHg 91%
    04:00 +18°C° 0.1 mm 2 mps 721 mmHg 92%
    05:00 +18°C° 0.1 mm 2 mps 721 mmHg 93%
    06:00 +18°C° 0.1 mm 2 mps 722 mmHg 92%
    07:00 +18°C° 0.1 mm 2 mps 722 mmHg 90%
    08:00 +18°C° 0.1 mm 2 mps 722 mmHg 88%
    09:00 +19°C° 0 mm 2 mps 722 mmHg 84%
    10:00 +20°C° 0 mm 2 mps 722 mmHg 81%
    11:00 +21°C° 0 mm 3 mps 722 mmHg 77%
    12:00 +22°C° 0 mm 3 mps 721 mmHg 71%
    13:00 +24°C° 0 mm 3 mps 720 mmHg 65%
    14:00 +26°C° 0 mm 4 mps 720 mmHg 58%
    15:00 +25°C° 0 mm 4 mps 719 mmHg 62%
    16:00 +25°C° 0 mm 4 mps 719 mmHg 65%
    17:00 +23°C° 0 mm 5 mps 719 mmHg 68%
    18:00 +22°C° 0 mm 4 mps 719 mmHg 71%
    19:00 +22°C° 0 mm 3 mps 719 mmHg 75%
    20:00 +21°C° 0 mm 2 mps 719 mmHg 79%
    21:00 +21°C° 0 mm 3 mps 719 mmHg 80%
    22:00 +21°C° 0 mm 3 mps 719 mmHg 81%
    23:00 +21°C° 0 mm 3 mps 719 mmHg 82%
    Show more